TimeCDT,TemperatureF,Dew PointF,Humidity,Sea Level PressureIn,VisibilityMPH,Wind Direction,Wind SpeedMPH,Gust SpeedMPH,PrecipitationIn,Events,Conditions,WindDirDegrees,DateUTC
12:53 AM,28.0,21.9,78,29.96,10.0,NW,8.1,-,N/A,,Mostly Cloudy,310,2013-04-12 05:53:00
1:53 AM,30.0,23.0,75,29.95,10.0,West,8.1,-,N/A,,Overcast,280,2013-04-12 06:53:00
2:53 AM,30.0,24.1,79,29.95,10.0,WNW,6.9,-,N/A,,Mostly Cloudy,290,2013-04-12 07:53:00
3:53 AM,28.9,24.1,82,29.93,10.0,West,9.2,-,N/A,,Clear,270,2013-04-12 08:53:00
4:53 AM,27.0,23.0,85,29.95,10.0,WSW,5.8,-,N/A,,Clear,240,2013-04-12 09:53:00
5:53 AM,28.9,24.1,82,29.95,10.0,West,9.2,-,N/A,,Clear,260,2013-04-12 10:53:00
6:53 AM,28.9,25.0,85,29.95,10.0,West,9.2,-,N/A,,Clear,270,2013-04-12 11:53:00
7:53 AM,30.9,27.0,85,29.97,10.0,West,11.5,-,N/A,,Clear,280,2013-04-12 12:53:00
8:53 AM,36.0,28.0,73,29.98,10.0,West,10.4,-,N/A,,Clear,280,2013-04-12 13:53:00
9:53 AM,39.9,30.0,68,29.99,10.0,WNW,8.1,-,N/A,,Clear,300,2013-04-12 14:53:00
10:53 AM,45.0,30.9,58,29.99,10.0,NW,10.4,-,N/A,,Clear,310,2013-04-12 15:53:00
11:53 AM,48.9,32.0,52,29.98,10.0,WNW,10.4,-,N/A,,Partly Cloudy,290,2013-04-12 16:53:00
12:53 PM,51.1,30.9,46,29.97,10.0,North,13.8,19.6,N/A,,Clear,350,2013-04-12 17:53:00
1:53 PM,54.0,28.9,38,29.96,10.0,NNW,11.5,23.0,N/A,,Partly Cloudy,330,2013-04-12 18:53:00
2:53 PM,55.9,30.0,37,29.95,10.0,North,10.4,18.4,N/A,,Mostly Cloudy,350,2013-04-12 19:53:00
3:53 PM,52.0,30.0,43,29.99,10.0,NW,10.4,-,N/A,,Overcast,320,2013-04-12 20:53:00
4:53 PM,50.0,30.9,48,29.98,10.0,NNW,10.4,-,0.00,,Overcast,340,2013-04-12 21:53:00
5:53 PM,43.0,37.0,80,30.05,7.0,NNW,19.6,-,0.00,Rain,Light Rain,340,2013-04-12 22:53:00
6:53 PM,43.0,36.0,76,30.04,10.0,NNW,3.5,-,0.01,,Overcast,340,2013-04-12 23:53:00
7:53 PM,42.1,36.0,79,30.04,10.0,NNW,8.1,-,N/A,,Mostly Cloudy,340,2013-04-13 00:53:00
8:53 PM,41.0,35.1,79,30.02,10.0,South,3.5,-,N/A,,Mostly Cloudy,180,2013-04-13 01:53:00
9:53 PM,37.0,33.1,86,30.05,10.0,WSW,6.9,-,N/A,,Clear,240,2013-04-13 02:53:00
10:53 PM,33.1,32.0,96,30.06,6.0,SSW,6.9,-,N/A,,Clear,210,2013-04-13 03:53:00
11:53 PM,33.1,32.0,96,30.06,7.0,WSW,9.2,-,N/A,,Clear,250,2013-04-13 04:53:00